Tracking 19212 objects as of 17-Jul-2018
HD Live streaming from Space Station
objects crossing your sky now

FENGYUN 1C DEB

Track FENGYUN 1C DEB now!
10-day predictions


NORAD ID: 32243
Int'l Code: 1999-025CWR
Perigee: 710.6 km
Apogee: 1,182.6 km
Inclination: 98.3 °
Period: 103.8 minutes
Semi major axis: 7317 km
RCS: 0.0053 m2 (small)
Launch date: May 10, 1999
Source: People's Republic of China (PRC)
Launch site: Taiyaun Space Center, China (TSC)

Note: This is SATELLITE DEBRIS
aabbcc
Your satellite tracking list
Your tracking list is empty




NASA's NSSDC Master Catalog

Two Line Element Set (TLE):
1 32243U 99025CWR 18197.69273053  .00000582  00000-0  35001-3 0  9997
2 32243  98.3194 104.8510 0322473 103.8912 259.8336 13.86914708559747
Source of the keplerian elements: AFSPC